Location: Milton
(43.5183°N, 79.8775°W)
Time: 00:11:01
(UTC+00:00)

AO-27 - Visible Passes

Search period start: 20 July 2024 00:00
Search period end: 30 July 2024 00:00
Orbit: 784 x 796 km, 98.8° (Epoch: 19 July)

Date Brightness Start Highest point End Pass type
(mag) Time Alt. Az. Time Alt. Az. Time Alt. Az.
20 Jul 7.7 01:36:27 10° SSE 01:41:35 72° ENE 01:46:47 10° N visible
20 Jul 10.1 03:18:44 10° WSW 03:21:35 15° W 03:24:26 10° NW visible
21 Jul 9.4 02:47:21 10° SSW 02:51:43 27° W 02:56:07 10° NW visible
22 Jul 8.4 02:16:58 10° S 02:21:59 50° W 02:27:03 10° NNW visible
23 Jul 7.7 01:47:12 10° SSE 01:52:22 88° ENE 01:57:37 10° NNW visible
23 Jul 10.2 03:30:49 10° WSW 03:32:31 11° W 03:34:14 10° WNW visible
24 Jul 8.1 01:17:57 10° SE 01:22:54 48° ENE 01:27:54 10° N visible
24 Jul 9.7 02:58:38 10° SW 03:02:36 22° W 03:06:37 10° NW visible
25 Jul 8.8 02:27:58 10° SSW 02:32:49 40° W 02:37:44 10° NNW visible
26 Jul 7.8 01:58:00 10° S 02:03:10 75° WSW 02:08:24 10° NNW visible
27 Jul 7.8 01:28:34 10° SSE 01:33:39 60° ENE 01:38:47 10° N visible
27 Jul 10.0 03:10:03 10° SW 03:13:30 18° W 03:16:59 10° NW visible
28 Jul 9.1 02:39:03 10° SSW 02:43:40 32° W 02:48:20 10° NNW visible
29 Jul 8.1 02:08:51 10° S 02:13:58 60° WSW 02:19:09 10° NNW visible
